Time,TemperatureF,DewpointF,PressureIn,WindDirection,WindDirectionDegrees,WindSpeedMPH,WindSpeedGustMPH,Humidity,HourlyPrecipIn,Conditions,Clouds,dailyrainin,SoftwareType,DateUTC
2013-07-03 00:04:00,66.7,55.0,30.04,ENE,73,10.0,-999.0,67,-99.99,,,0.00,weatherlink.com 1.10,2013-07-03 05:04:00,
2013-07-03 00:19:00,66.2,55.0,30.04,ENE,76,10.0,-999.0,68,-99.99,,,0.00,weatherlink.com 1.10,2013-07-03 05:19:00,
2013-07-03 00:34:00,66.3,56.0,30.04,East,83,7.0,-999.0,70,-99.99,,,0.00,weatherlink.com 1.10,2013-07-03 05:34:00,
2013-07-03 00:49:00,66.1,56.0,30.04,East,80,10.0,-999.0,70,-99.99,,,0.00,weatherlink.com 1.10,2013-07-03 05:49:00,
2013-07-03 01:19:00,65.4,56.0,30.04,East,85,6.0,-999.0,72,-99.99,,,0.00,weatherlink.com 1.10,2013-07-03 06:19:00,
2013-07-03 01:34:00,65.0,56.0,30.04,East,87,8.0,-999.0,73,-99.99,,,0.00,weatherlink.com 1.10,2013-07-03 06:34:00,
2013-07-03 01:49:00,64.5,56.0,30.03,East,90,7.0,-999.0,74,-99.99,,,0.00,weatherlink.com 1.10,2013-07-03 06:49:00,
2013-07-03 02:04:00,64.5,56.0,30.03,East,82,7.0,-999.0,74,-99.99,,,0.00,weatherlink.com 1.10,2013-07-03 07:04:00,
2013-07-03 02:19:00,64.2,56.0,30.03,East,96,6.0,-999.0,74,-99.99,,,0.00,weatherlink.com 1.10,2013-07-03 07:19:00,
2013-07-03 02:34:00,63.9,55.0,30.03,East,101,2.0,-999.0,74,-99.99,,,0.00,weatherlink.com 1.10,2013-07-03 07:34:00,
2013-07-03 03:04:00,63.2,55.0,30.03,ESE,106,0.0,-999.0,74,-99.99,,,0.00,weatherlink.com 1.10,2013-07-03 08:04:00,
2013-07-03 03:19:00,63.2,55.0,30.03,ESE,109,0.0,-999.0,74,-99.99,,,0.00,weatherlink.com 1.10,2013-07-03 08:19:00,
2013-07-03 03:49:00,63.4,54.0,30.03,SE,136,0.0,-999.0,71,-99.99,,,0.00,weatherlink.com 1.10,2013-07-03 08:49:00,
2013-07-03 04:04:00,63.3,55.0,30.03,SE,135,0.0,-999.0,73,-99.99,,,0.00,weatherlink.com 1.10,2013-07-03 09:04:00,
2013-07-03 04:19:00,63.2,54.0,30.03,SE,131,0.0,-999.0,73,-99.99,,,0.00,weatherlink.com 1.10,2013-07-03 09:19:00,
2013-07-03 04:34:00,62.9,55.0,30.04,SE,132,0.0,-999.0,74,-99.99,,,0.00,weatherlink.com 1.10,2013-07-03 09:34:00,
2013-07-03 04:49:00,62.6,54.0,30.04,SE,131,0.0,-999.0,74,-99.99,,,0.00,weatherlink.com 1.10,2013-07-03 09:49:00,
2013-07-03 05:19:00,62.7,54.0,30.05,SE,129,0.0,-999.0,73,-99.99,,,0.00,weatherlink.com 1.10,2013-07-03 10:19:00,
2013-07-03 05:34:00,62.6,54.0,30.05,SE,128,0.0,-999.0,73,-99.99,,,0.00,weatherlink.com 1.10,2013-07-03 10:34:00,
2013-07-03 06:04:00,62.7,54.0,30.05,SE,128,0.0,-999.0,72,-99.99,,,0.00,weatherlink.com 1.10,2013-07-03 11:04:00,
2013-07-03 06:19:00,63.0,53.0,30.05,SE,128,0.0,-999.0,71,-99.99,,,0.00,weatherlink.com 1.10,2013-07-03 11:19:00,
2013-07-03 06:34:00,63.5,52.0,30.05,SE,128,0.0,-999.0,67,-99.99,,,0.00,weatherlink.com 1.10,2013-07-03 11:34:00,
2013-07-03 06:49:00,64.4,51.0,30.05,SE,128,0.0,-999.0,63,-99.99,,,0.00,weatherlink.com 1.10,2013-07-03 11:49:00,
2013-07-03 07:04:00,65.4,52.0,30.06,SE,128,0.0,-999.0,62,-99.99,,,0.00,weatherlink.com 1.10,2013-07-03 12:04:00,
2013-07-03 07:19:00,66.2,50.0,30.06,SE,128,0.0,-999.0,57,-99.99,,,0.00,weatherlink.com 1.10,2013-07-03 12:19:00,
2013-07-03 07:34:00,66.8,50.0,30.06,SE,128,0.0,-999.0,55,-99.99,,,0.00,weatherlink.com 1.10,2013-07-03 12:34:00,
2013-07-03 07:49:00,67.2,48.0,30.07,SE,128,0.0,-999.0,51,-99.99,,,0.00,weatherlink.com 1.10,2013-07-03 12:49:00,
2013-07-03 08:34:00,68.0,54.0,30.08,SE,127,0.0,-999.0,61,-99.99,,,0.00,weatherlink.com 1.10,2013-07-03 13:34:00,
2013-07-03 08:49:00,68.2,56.0,30.08,SE,127,0.0,-999.0,66,-99.99,,,0.00,weatherlink.com 1.10,2013-07-03 13:49:00,
2013-07-03 09:04:00,68.7,57.0,30.08,SE,127,0.0,-999.0,67,-99.99,,,0.00,weatherlink.com 1.10,2013-07-03 14:04:00,
2013-07-03 09:19:00,69.9,55.0,30.08,SE,126,0.0,-999.0,60,-99.99,,,0.00,weatherlink.com 1.10,2013-07-03 14:19:00,
2013-07-03 09:34:00,70.4,56.0,30.08,SE,126,0.0,-999.0,61,-99.99,,,0.00,weatherlink.com 1.10,2013-07-03 14:34:00,
2013-07-03 09:49:00,71.0,54.0,30.08,ESE,121,0.0,-999.0,55,-99.99,,,0.00,weatherlink.com 1.10,2013-07-03 14:49:00,
2013-07-03 10:04:00,71.4,54.0,30.08,ESE,117,0.0,-999.0,54,-99.99,,,0.00,weatherlink.com 1.10,2013-07-03 15:04:00,
2013-07-03 10:19:00,72.1,56.0,30.08,ESE,117,0.0,-999.0,58,-99.99,,,0.00,weatherlink.com 1.10,2013-07-03 15:19:00,
2013-07-03 10:34:00,72.6,55.0,30.09,ESE,116,0.0,-999.0,55,-99.99,,,0.00,weatherlink.com 1.10,2013-07-03 15:34:00,
2013-07-03 11:04:00,72.9,56.0,30.09,East,93,0.0,-999.0,56,-99.99,,,0.00,weatherlink.com 1.10,2013-07-03 16:04:00,
2013-07-03 11:19:00,73.3,57.0,30.09,East,89,0.0,-999.0,58,-99.99,,,0.00,weatherlink.com 1.10,2013-07-03 16:19:00,
2013-07-03 11:49:00,74.8,55.0,30.08,East,84,0.0,-999.0,50,-99.99,,,0.00,weatherlink.com 1.10,2013-07-03 16:49:00,
2013-07-03 12:04:00,75.5,55.0,30.08,East,79,0.0,-999.0,50,-99.99,,,0.00,weatherlink.com 1.10,2013-07-03 17:04:00,
2013-07-03 12:34:00,76.3,55.0,30.07,East,82,0.0,-999.0,47,-99.99,,,0.00,weatherlink.com 1.10,2013-07-03 17:34:00,
2013-07-03 12:49:00,77.4,55.0,30.06,ENE,77,0.0,-999.0,46,-99.99,,,0.00,weatherlink.com 1.10,2013-07-03 17:49:00,
2013-07-03 13:04:00,76.4,53.0,30.06,ENE,67,0.0,-999.0,45,-99.99,,,0.00,weatherlink.com 1.10,2013-07-03 18:04:00,
2013-07-03 13:19:00,75.9,54.0,30.06,ENE,68,0.0,-999.0,46,-99.99,,,0.00,weatherlink.com 1.10,2013-07-03 18:19:00,
2013-07-03 13:34:00,75.9,56.0,30.05,ENE,68,0.0,-999.0,51,-99.99,,,0.00,weatherlink.com 1.10,2013-07-03 18:34:00,
2013-07-03 13:49:00,77.0,53.0,30.05,ENE,68,3.0,-999.0,44,-99.99,,,0.00,weatherlink.com 1.10,2013-07-03 18:49:00,
2013-07-03 14:04:00,76.3,53.0,30.05,ENE,70,0.0,-999.0,44,-99.99,,,0.00,weatherlink.com 1.10,2013-07-03 19:04:00,
2013-07-03 14:19:00,76.3,53.0,30.04,ENE,70,3.0,-999.0,44,-99.99,,,0.00,weatherlink.com 1.10,2013-07-03 19:19:00,
2013-07-03 14:34:00,75.7,51.0,30.04,ENE,71,0.0,-999.0,42,-99.99,,,0.00,weatherlink.com 1.10,2013-07-03 19:34:00,
2013-07-03 14:49:00,77.3,52.0,30.03,ENE,72,3.0,-999.0,41,-99.99,,,0.00,weatherlink.com 1.10,2013-07-03 19:49:00,
2013-07-03 15:04:00,77.3,49.0,30.03,ENE,66,0.0,-999.0,37,-99.99,,,0.00,weatherlink.com 1.10,2013-07-03 20:04:00,
2013-07-03 15:19:00,77.9,48.0,30.02,ENE,61,0.0,-999.0,35,-99.99,,,0.00,weatherlink.com 1.10,2013-07-03 20:19:00,
2013-07-03 15:34:00,76.7,52.0,30.02,ENE,63,0.0,-999.0,42,-99.99,,,0.00,weatherlink.com 1.10,2013-07-03 20:34:00,
2013-07-03 15:49:00,78.2,50.0,30.02,ENE,63,3.0,-999.0,37,-99.99,,,0.00,weatherlink.com 1.10,2013-07-03 20:49:00,
2013-07-03 16:04:00,77.7,51.0,30.02,ENE,69,6.0,-999.0,40,-99.99,,,0.00,weatherlink.com 1.10,2013-07-03 21:04:00,
2013-07-03 16:19:00,78.0,50.0,30.01,ENE,69,5.0,-999.0,38,-99.99,,,0.00,weatherlink.com 1.10,2013-07-03 21:19:00,
2013-07-03 16:49:00,78.6,51.0,30.00,ENE,69,0.0,-999.0,38,-99.99,,,0.00,weatherlink.com 1.10,2013-07-03 21:49:00,
2013-07-03 17:04:00,77.9,49.0,30.00,ENE,71,3.0,-999.0,36,-99.99,,,0.00,weatherlink.com 1.10,2013-07-03 22:04:00,
2013-07-03 17:19:00,77.5,51.0,30.00,ENE,76,0.0,-999.0,40,-99.99,,,0.00,weatherlink.com 1.10,2013-07-03 22:19:00,
2013-07-03 17:34:00,77.1,50.0,30.00,ENE,76,0.0,-999.0,39,-99.99,,,0.00,weatherlink.com 1.10,2013-07-03 22:34:00,
2013-07-03 17:49:00,77.1,50.0,29.99,ENE,76,0.0,-999.0,39,-99.99,,,0.00,weatherlink.com 1.10,2013-07-03 22:49:00,
2013-07-03 18:04:00,77.3,52.0,29.99,ENE,76,0.0,-999.0,41,-99.99,,,0.00,weatherlink.com 1.10,2013-07-03 23:04:00,
2013-07-03 18:19:00,77.1,50.0,30.00,ENE,76,6.0,-999.0,38,-99.99,,,0.00,weatherlink.com 1.10,2013-07-03 23:19:00,
2013-07-03 18:34:00,76.6,50.0,29.99,ENE,76,0.0,-999.0,39,-99.99,,,0.00,weatherlink.com 1.10,2013-07-03 23:34:00,
2013-07-03 18:49:00,76.5,50.0,30.00,ENE,76,0.0,-999.0,39,-99.99,,,0.00,weatherlink.com 1.10,2013-07-03 23:49:00,
2013-07-03 19:04:00,76.3,49.0,29.99,ENE,76,0.0,-999.0,39,-99.99,,,0.00,weatherlink.com 1.10,2013-07-04 00:04:00,
2013-07-03 19:19:00,75.9,50.0,29.99,ENE,76,2.0,-999.0,40,-99.99,,,0.00,weatherlink.com 1.10,2013-07-04 00:19:00,
2013-07-03 19:34:00,75.3,51.0,29.99,ENE,77,4.0,-999.0,42,-99.99,,,0.00,weatherlink.com 1.10,2013-07-04 00:34:00,
2013-07-03 19:49:00,75.0,51.0,29.99,ENE,78,1.0,-999.0,43,-99.99,,,0.00,weatherlink.com 1.10,2013-07-04 00:49:00,
2013-07-03 20:04:00,74.7,51.0,29.99,East,82,5.0,-999.0,43,-99.99,,,0.00,weatherlink.com 1.10,2013-07-04 01:04:00,
2013-07-03 20:19:00,74.6,51.0,30.00,East,82,0.0,-999.0,44,-99.99,,,0.00,weatherlink.com 1.10,2013-07-04 01:19:00,
2013-07-03 20:34:00,74.2,51.0,30.00,East,83,0.0,-999.0,45,-99.99,,,0.00,weatherlink.com 1.10,2013-07-04 01:34:00,
2013-07-03 20:49:00,73.9,50.0,30.00,East,84,3.0,-999.0,43,-99.99,,,0.00,weatherlink.com 1.10,2013-07-04 01:49:00,
2013-07-03 21:04:00,74.1,50.0,30.00,East,86,1.0,-999.0,43,-99.99,,,0.00,weatherlink.com 1.10,2013-07-04 02:04:00,
2013-07-03 21:19:00,73.9,51.0,30.00,East,91,4.0,-999.0,44,-99.99,,,0.00,weatherlink.com 1.10,2013-07-04 02:19:00,
2013-07-03 21:34:00,73.6,50.0,30.00,East,92,6.0,-999.0,44,-99.99,,,0.00,weatherlink.com 1.10,2013-07-04 02:34:00,
2013-07-03 21:49:00,73.0,51.0,30.01,ESE,107,0.0,-999.0,47,-99.99,,,0.00,weatherlink.com 1.10,2013-07-04 02:49:00,
2013-07-03 22:04:00,72.0,53.0,30.01,ESE,119,0.0,-999.0,51,-99.99,,,0.00,weatherlink.com 1.10,2013-07-04 03:04:00,
2013-07-03 22:19:00,71.5,54.0,30.02,SW,223,0.0,-999.0,55,-99.99,,,0.00,weatherlink.com 1.10,2013-07-04 03:19:00,
2013-07-03 22:34:00,71.0,55.0,30.02,SE,140,0.0,-999.0,57,-99.99,,,0.00,weatherlink.com 1.10,2013-07-04 03:34:00,
2013-07-03 22:49:00,70.9,55.0,30.02,SE,131,4.0,-999.0,57,-99.99,,,0.00,weatherlink.com 1.10,2013-07-04 03:49:00,
2013-07-03 23:04:00,70.9,55.0,30.02,SE,132,0.0,-999.0,57,-99.99,,,0.00,weatherlink.com 1.10,2013-07-04 04:04:00,
2013-07-03 23:19:00,70.7,55.0,30.02,SE,145,1.0,-999.0,57,-99.99,,,0.00,weatherlink.com 1.10,2013-07-04 04:19:00,
2013-07-03 23:34:00,70.1,54.0,30.03,South,173,2.0,-999.0,58,-99.99,,,0.00,weatherlink.com 1.10,2013-07-04 04:34:00,
2013-07-03 23:49:00,69.7,55.0,30.02,SSE,164,1.0,-999.0,59,-99.99,,,0.00,weatherlink.com 1.10,2013-07-04 04:49:00,